| time (UTC) | temp F | wind direction | speed MPH | gust MPH | rain 1hr in | rain 24hr in | rain mn in | humidity % | barometer mb |
| 20260504024031 | 57 | 219 | 0.0 | 4.0 | 0.00 | 0.00 | 0.00 | 65 | 1006.0 |
| 20260504023530 | 57 | 219 | 1.0 | 4.0 | 0.00 | 0.00 | 0.00 | 65 | 1006.1 |
| 20260504023041 | 56 | 0 | 0.0 | 4.0 | 0.00 | 0.00 | 0.00 | 66 | 1006.2 |
| 20260504022531 | 56 | 0 | 1.0 | 4.0 | 0.00 | 0.00 | 0.00 | 66 | 1006.1 |
| 20260504022030 | 56 | 0 | 0.0 | 2.0 | 0.00 | 0.00 | 0.00 | 66 | 1006.1 |
| 20260504021546 | 57 | 218 | 0.0 | 2.0 | 0.00 | 0.00 | 0.00 | 67 | 1006.1 |
| 20260504021029 | 57 | 0 | 0.0 | 2.0 | 0.00 | 0.00 | 0.00 | 66 | 1006.0 |
| 20260504020529 | 57 | 0 | 0.0 | 3.0 | 0.00 | 0.00 | 0.00 | 65 | 1006.1 |
| 20260504020045 | 57 | 0 | 0.0 | 3.0 | 0.00 | 0.00 | 0.00 | 64 | 1006.1 |
| 20260504015530 | 57 | 0 | 0.0 | 4.0 | 0.00 | 0.00 | 0.00 | 64 | 1006.0 |
| 20260504015031 | 57 | 0 | 0.0 | 4.0 | 0.00 | 0.00 | 0.00 | 64 | 1006.0 |
| 20260504014545 | 58 | 0 | 1.0 | 2.0 | 0.00 | 0.00 | 0.00 | 66 | 1006.0 |
| 20260504014030 | 58 | 0 | 0.0 | 2.0 | 0.00 | 0.00 | 0.00 | 62 | 1005.8 |
| 20260504013529 | 59 | 0 | 0.0 | 0.0 | 0.00 | 0.00 | 0.00 | 62 | 1005.9 |
| 20260504013044 | 60 | 0 | 0.0 | 1.0 | 0.00 | 0.00 | 0.00 | 61 | 1005.8 |
| 20260504012529 | 60 | 0 | 0.0 | 1.0 | 0.00 | 0.00 | 0.00 | 60 | 1005.7 |
| 20260504012029 | 61 | 0 | 0.0 | 1.0 | 0.00 | 0.00 | 0.00 | 59 | 1005.7 |
| 20260504011544 | 62 | 0 | 0.0 | 1.0 | 0.00 | 0.00 | 0.00 | 57 | 1005.6 |
| 20260504011030 | 62 | 0 | 0.0 | 1.0 | 0.00 | 0.00 | 0.00 | 56 | 1005.7 |
| 20260504010532 | 63 | 0 | 0.0 | 0.0 | 0.00 | 0.00 | 0.00 | 55 | 1005.6 |
| 20260504010047 | 63 | 0 | 0.0 | 0.0 | 0.00 | 0.00 | 0.00 | 53 | 1005.5 |
| 20260504005530 | 64 | 0 | 0.0 | 1.0 | 0.00 | 0.00 | 0.00 | 53 | 1005.5 |
| 20260504005030 | 64 | 0 | 0.0 | 1.0 | 0.00 | 0.00 | 0.00 | 52 | 1005.4 |
| 20260504004545 | 65 | 250 | 0.0 | 4.0 | 0.00 | 0.00 | 0.00 | 51 | 1005.5 |
| 20260504004029 | 65 | 0 | 0.0 | 4.0 | 0.00 | 0.00 | 0.00 | 51 | 1005.6 |
| 20260504003530 | 65 | 252 | 1.0 | 4.0 | 0.00 | 0.00 | 0.00 | 50 | 1005.5 |
| 20260504003047 | 66 | 0 | 1.0 | 6.0 | 0.00 | 0.00 | 0.00 | 50 | 1005.5 |
| 20260504002529 | 66 | 260 | 0.0 | 6.0 | 0.00 | 0.00 | 0.00 | 50 | 1005.5 |
| 20260504002029 | 67 | 196 | 2.0 | 6.0 | 0.00 | 0.00 | 0.00 | 49 | 1005.7 |
| 20260504001559 | 67 | 0 | 1.0 | 6.0 | 0.00 | 0.00 | 0.00 | 49 | 1005.6 |
| 20260504001030 | 67 | 263 | 1.0 | 6.0 | 0.00 | 0.00 | 0.00 | 49 | 1005.6 |
| 20260504000530 | 68 | 0 | 1.0 | 6.0 | 0.00 | 0.00 | 0.00 | 48 | 1005.8 |
| 20260504000045 | 68 | 252 | 1.0 | 9.0 | 0.00 | 0.00 | 0.00 | 48 | 1005.8 |
| 20260503235530 | 68 | 228 | 1.0 | 9.0 | 0.00 | 0.00 | 0.00 | 48 | 1005.7 |
| 20260503235030 | 68 | 215 | 2.0 | 10.0 | 0.00 | 0.00 | 0.00 | 47 | 1005.8 |
| 20260503234539 | 68 | 252 | 2.0 | 11.0 | 0.00 | 0.00 | 0.00 | 48 | 1005.7 |
| 20260503234033 | 68 | 261 | 4.0 | 11.0 | 0.00 | 0.00 | 0.00 | 48 | 1005.5 |
| 20260503233531 | 68 | 309 | 2.0 | 11.0 | 0.00 | 0.00 | 0.00 | 48 | 1005.6 |
| 20260503233045 | 68 | 202 | 3.0 | 11.0 | 0.00 | 0.00 | 0.00 | 48 | 1005.6 |
| 20260503232532 | 68 | 217 | 3.0 | 11.0 | 0.00 | 0.00 | 0.00 | 48 | 1005.6 |
| 20260503232029 | 68 | 252 | 4.0 | 11.0 | 0.00 | 0.00 | 0.00 | 48 | 1005.6 |
| 20260503231554 | 68 | 259 | 5.0 | 11.0 | 0.00 | 0.00 | 0.00 | 47 | 1005.7 |
| 20260503231030 | 68 | 221 | 4.0 | 14.0 | 0.00 | 0.00 | 0.00 | 47 | 1005.8 |
| 20260503230531 | 68 | 200 | 5.0 | 14.0 | 0.00 | 0.00 | 0.00 | 47 | 1005.7 |
| 20260503230045 | 68 | 216 | 3.0 | 11.0 | 0.00 | 0.00 | 0.00 | 46 | 1006.0 |
| 20260503225533 | 68 | 240 | 4.0 | 11.0 | 0.00 | 0.00 | 0.00 | 47 | 1005.9 |
| 20260503225029 | 68 | 298 | 4.0 | 14.0 | 0.00 | 0.00 | 0.00 | 46 | 1005.9 |
| 20260503224545 | 68 | 247 | 3.0 | 14.0 | 0.00 | 0.00 | 0.00 | 46 | 1006.1 |
| 20260503224030 | 68 | 219 | 6.0 | 16.0 | 0.00 | 0.00 | 0.00 | 46 | 1006.1 |
| 20260503223529 | 68 | 222 | 4.0 | 16.0 | 0.00 | 0.00 | 0.00 | 45 | 1006.1 |
| 20260503223043 | 68 | 205 | 5.0 | 15.0 | 0.00 | 0.00 | 0.00 | 45 | 1006.2 |
| 20260503222529 | 68 | 219 | 4.0 | 13.0 | 0.00 | 0.00 | 0.00 | 46 | 1006.3 |
| 20260503222029 | 69 | 233 | 5.0 | 13.0 | 0.00 | 0.00 | 0.00 | 46 | 1006.2 |
| 20260503221547 | 68 | 175 | 4.0 | 17.0 | 0.00 | 0.00 | 0.00 | 46 | 1006.1 |
| 20260503221031 | 68 | 273 | 6.0 | 17.0 | 0.00 | 0.00 | 0.00 | 44 | 1006.2 |
| 20260503220533 | 68 | 241 | 6.0 | 19.0 | 0.00 | 0.00 | 0.00 | 44 | 1006.2 |
| 20260503220045 | 68 | 232 | 8.0 | 19.0 | 0.00 | 0.00 | 0.00 | 44 | 1006.1 |
| 20260503215530 | 69 | 194 | 4.0 | 18.0 | 0.00 | 0.00 | 0.00 | 45 | 1006.2 |
| 20260503215029 | 68 | 342 | 8.0 | 18.0 | 0.00 | 0.00 | 0.00 | 44 | 1006.1 |
| 20260503214552 | 69 | 329 | 4.0 | 14.0 | 0.00 | 0.00 | 0.00 | 46 | 1006.2 |
| 20260503214029 | 68 | 227 | 4.0 | 16.0 | 0.00 | 0.00 | 0.00 | 47 | 1006.1 |
| 20260503213529 | 68 | 239 | 6.0 | 18.0 | 0.00 | 0.00 | 0.00 | 46 | 1006.2 |
| 20260503213106 | 68 | 209 | 7.0 | 18.0 | 0.00 | 0.00 | 0.00 | 46 | 1006.3 |
| 20260503212529 | 68 | 232 | 9.0 | 18.0 | 0.00 | 0.00 | 0.00 | 47 | 1006.4 |
| 20260503212029 | 67 | 275 | 6.0 | 17.0 | 0.00 | 0.00 | 0.00 | 47 | 1006.4 |
| 20260503211603 | 67 | 197 | 7.0 | 17.0 | 0.00 | 0.00 | 0.00 | 47 | 1006.5 |
| 20260503211032 | 67 | 217 | 7.0 | 17.0 | 0.00 | 0.00 | 0.00 | 46 | 1006.7 |
| 20260503210532 | 67 | 222 | 7.0 | 17.0 | 0.00 | 0.00 | 0.00 | 47 | 1006.7 |
| 20260503210047 | 67 | 250 | 7.0 | 14.0 | 0.00 | 0.00 | 0.00 | 47 | 1007.0 |
| 20260503205530 | 66 | 227 | 6.0 | 18.0 | 0.00 | 0.00 | 0.00 | 48 | 1007.0 |
| 20260503205034 | 65 | 248 | 8.0 | 26.0 | 0.00 | 0.00 | 0.00 | 50 | 1007.1 |
| 20260503204601 | 65 | 269 | 9.0 | 26.0 | 0.00 | 0.00 | 0.00 | 49 | 1007.1 |
| 20260503204029 | 65 | 198 | 5.0 | 27.0 | 0.00 | 0.00 | 0.00 | 49 | 1007.3 |
| 20260503203530 | 65 | 202 | 10.0 | 27.0 | 0.00 | 0.00 | 0.00 | 47 | 1007.4 |
| 20260503203049 | 65 | 173 | 11.0 | 24.0 | 0.00 | 0.00 | 0.00 | 46 | 1007.5 |
| 20260503202529 | 66 | 254 | 10.0 | 24.0 | 0.00 | 0.00 | 0.00 | 47 | 1007.5 |
| 20260503202029 | 65 | 200 | 7.0 | 27.0 | 0.00 | 0.00 | 0.00 | 47 | 1007.7 |
| 20260503201542 | 65 | 191 | 12.0 | 27.0 | 0.00 | 0.00 | 0.00 | 46 | 1007.7 |
| 20260503201030 | 66 | 300 | 9.0 | 22.0 | 0.00 | 0.00 | 0.00 | 47 | 1007.8 |
| 20260503200530 | 65 | 244 | 7.0 | 25.0 | 0.00 | 0.00 | 0.00 | 48 | 1007.8 |
| 20260503200041 | 65 | 207 | 9.0 | 25.0 | 0.00 | 0.00 | 0.00 | 48 | 1007.9 |
| 20260503195530 | 64 | 226 | 12.0 | 24.0 | 0.00 | 0.00 | 0.00 | 51 | 1008.1 |
| 20260503195029 | 64 | 193 | 8.0 | 24.0 | 0.00 | 0.00 | 0.00 | 53 | 1008.3 |
| 20260503194546 | 63 | 198 | 9.0 | 24.0 | 0.00 | 0.00 | 0.00 | 53 | 1008.3 |
| 20260503194030 | 63 | 215 | 11.0 | 24.0 | 0.00 | 0.00 | 0.00 | 54 | 1008.3 |
| 20260503193532 | 62 | 220 | 7.0 | 23.0 | 0.00 | 0.00 | 0.00 | 55 | 1008.5 |
| 20260503193046 | 62 | 221 | 10.0 | 30.0 | 0.00 | 0.00 | 0.00 | 55 | 1008.4 |
| 20260503192529 | 62 | 188 | 13.0 | 30.0 | 0.00 | 0.00 | 0.00 | 55 | 1008.8 |
| 20260503192029 | 62 | 223 | 12.0 | 21.0 | 0.00 | 0.00 | 0.00 | 54 | 1008.9 |
| 20260503191557 | 63 | 163 | 8.0 | 22.0 | 0.00 | 0.00 | 0.00 | 54 | 1009.0 |
| 20260503191030 | 63 | 180 | 9.0 | 24.0 | 0.00 | 0.00 | 0.00 | 56 | 1009.2 |
| 20260503190530 | 62 | 173 | 8.0 | 24.0 | 0.00 | 0.00 | 0.00 | 53 | 1009.1 |
| 20260503190049 | 62 | 200 | 8.0 | 28.0 | 0.00 | 0.00 | 0.00 | 53 | 1009.1 |
| 20260503185534 | 62 | 280 | 10.0 | 28.0 | 0.00 | 0.00 | 0.00 | 52 | 1009.0 |
| 20260503185034 | 62 | 198 | 10.0 | 27.0 | 0.00 | 0.00 | 0.00 | 52 | 1008.8 |
| 20260503184607 | 62 | 213 | 11.0 | 27.0 | 0.00 | 0.00 | 0.00 | 50 | 1008.7 |
| 20260503184030 | 62 | 266 | 9.0 | 24.0 | 0.00 | 0.00 | 0.00 | 48 | 1008.8 |
| 20260503183529 | 62 | 194 | 7.0 | 23.0 | 0.00 | 0.00 | 0.00 | 52 | 1008.7 |
| 20260503183052 | 61 | 189 | 11.0 | 23.0 | 0.00 | 0.00 | 0.00 | 50 | 1008.8 |
| 20260503182529 | 61 | 204 | 12.0 | 23.0 | 0.00 | 0.00 | 0.00 | 49 | 1009.0 |
| 20260503182030 | 61 | 202 | 8.0 | 22.0 | 0.00 | 0.00 | 0.00 | 50 | 1009.2 |
| 20260503181547 | 61 | 227 | 7.0 | 26.0 | 0.00 | 0.00 | 0.00 | 50 | 1009.0 |
| 20260503181033 | 61 | 186 | 8.0 | 26.0 | 0.00 | 0.00 | 0.00 | 49 | 1009.1 |
| 20260503180530 | 61 | 204 | 8.0 | 20.0 | 0.00 | 0.00 | 0.00 | 50 | 1009.1 |
| 20260503180045 | 61 | 180 | 9.0 | 20.0 | 0.00 | 0.00 | 0.00 | 52 | 1009.2 |
| 20260503175529 | 61 | 198 | 7.0 | 27.0 | 0.00 | 0.00 | 0.00 | 52 | 1009.3 |
| 20260503175032 | 61 | 225 | 9.0 | 27.0 | 0.00 | 0.00 | 0.00 | 53 | 1009.3 |
| 20260503174555 | 60 | 234 | 10.0 | 24.0 | 0.00 | 0.00 | 0.00 | 53 | 1009.4 |
| 20260503174029 | 60 | 167 | 9.0 | 24.0 | 0.00 | 0.00 | 0.00 | 54 | 1009.4 |
| 20260503173529 | 60 | 223 | 7.0 | 24.0 | 0.00 | 0.00 | 0.00 | 56 | 1009.6 |
| 20260503173040 | 59 | 188 | 11.0 | 24.0 | 0.00 | 0.00 | 0.00 | 58 | 1009.6 |
| 20260503172528 | 59 | 201 | 7.0 | 26.0 | 0.00 | 0.00 | 0.00 | 60 | 1009.7 |
| 20260503172029 | 58 | 173 | 9.0 | 26.0 | 0.00 | 0.00 | 0.00 | 60 | 1010.2 |
| 20260503171547 | 58 | 235 | 8.0 | 24.0 | 0.00 | 0.00 | 0.00 | 61 | 1010.2 |
| 20260503171032 | 57 | 188 | 10.0 | 24.0 | 0.00 | 0.00 | 0.00 | 63 | 1010.6 |
| 20260503170530 | 57 | 200 | 7.0 | 16.0 | 0.00 | 0.00 | 0.00 | 65 | 1010.7 |
| 20260503150535 | 54 | 213 | 10.0 | 26.0 | 0.00 | 0.00 | 0.00 | 62 | 1013.0 |
| 20260503131030 | 51 | 179 | 7.0 | 16.0 | 0.00 | 0.00 | 0.00 | 60 | 1013.8 |
| 20260503130529 | 50 | 207 | 8.0 | 15.0 | 0.00 | 0.00 | 0.00 | 60 | 1013.7 |
| 20260503110533 | 47 | 221 | 4.0 | 13.0 | 0.00 | 0.00 | 0.00 | 62 | 1013.2 |
| 20260503081556 | 47 | 219 | 5.0 | 14.0 | 0.00 | 0.00 | 0.00 | 58 | 1014.1 |
| 20260503081031 | 47 | 187 | 5.0 | 10.0 | 0.00 | 0.00 | 0.00 | 58 | 1014.1 |
| 20260503080530 | 47 | 208 | 5.0 | 10.0 | 0.00 | 0.00 | 0.00 | 58 | 1014.2 |
| 20260503072532 | 46 | 198 | 4.0 | 9.0 | 0.00 | 0.00 | 0.00 | 59 | 1014.3 |
| 20260503072029 | 46 | 217 | 3.0 | 11.0 | 0.00 | 0.00 | 0.00 | 59 | 1014.3 |
| 20260503071604 | 46 | 203 | 2.0 | 11.0 | 0.00 | 0.00 | 0.00 | 59 | 1014.3 |
| 20260503071029 | 46 | 234 | 4.0 | 11.0 | 0.00 | 0.00 | 0.00 | 59 | 1014.5 |
| 20260503070532 | 46 | 196 | 4.0 | 8.0 | 0.00 | 0.00 | 0.00 | 59 | 1014.6 |
| 20260503070110 | 46 | 205 | 3.0 | 10.0 | 0.00 | 0.00 | 0.00 | 60 | 1014.5 |
| 20260503060105 | 45 | 192 | 2.0 | 6.0 | 0.00 | 0.00 | 0.00 | 62 | 1015.0 |
| 20260503055028 | 45 | 206 | 3.0 | 7.0 | 0.00 | 0.00 | 0.00 | 62 | 1015.1 |
| 20260503054555 | 44 | 228 | 2.0 | 6.0 | 0.00 | 0.00 | 0.00 | 62 | 1015.2 |
| 20260503054029 | 44 | 222 | 1.0 | 6.0 | 0.00 | 0.00 | 0.00 | 62 | 1015.2 |
| 20260503053530 | 44 | 199 | 2.0 | 6.0 | 0.00 | 0.00 | 0.00 | 62 | 1015.2 |
| 20260503053045 | 44 | 226 | 2.0 | 8.0 | 0.00 | 0.00 | 0.00 | 63 | 1015.2 |
| 20260503052530 | 44 | 241 | 1.0 | 8.0 | 0.00 | 0.00 | 0.00 | 62 | 1015.2 |
| 20260503052030 | 44 | 256 | 2.0 | 6.0 | 0.00 | 0.00 | 0.00 | 63 | 1015.2 |
| 20260503051550 | 44 | 193 | 2.0 | 6.0 | 0.00 | 0.00 | 0.00 | 63 | 1015.3 |
| 20260503051029 | 44 | 232 | 2.0 | 6.0 | 0.00 | 0.00 | 0.00 | 63 | 1015.4 |
| 20260503050529 | 45 | 182 | 0.0 | 6.0 | 0.00 | 0.00 | 0.00 | 62 | 1015.5 |
| 20260503050043 | 45 | 205 | 2.0 | 6.0 | 0.00 | 0.00 | 0.00 | 62 | 1015.5 |
| 20260503045530 | 45 | 221 | 2.0 | 6.0 | 0.00 | 0.00 | 0.00 | 62 | 1015.5 |
| 20260503045030 | 45 | 238 | 1.0 | 6.0 | 0.00 | 0.00 | 0.00 | 62 | 1015.6 |
| 20260503044540 | 45 | 212 | 1.0 | 6.0 | 0.00 | 0.00 | 0.00 | 61 | 1015.6 |
| 20260503044028 | 45 | 227 | 2.0 | 6.0 | 0.00 | 0.00 | 0.00 | 61 | 1015.6 |
| 20260503043529 | 45 | 223 | 2.0 | 6.0 | 0.00 | 0.00 | 0.00 | 62 | 1015.6 |
| 20260503043046 | 45 | 231 | 2.0 | 6.0 | 0.00 | 0.00 | 0.00 | 62 | 1015.5 |
| 20260503042532 | 45 | 200 | 2.0 | 4.0 | 0.00 | 0.00 | 0.00 | 62 | 1015.6 |
| 20260503042032 | 45 | 234 | 2.0 | 5.0 | 0.00 | 0.00 | 0.00 | 62 | 1015.7 |
| 20260503041546 | 45 | 209 | 2.0 | 5.0 | 0.00 | 0.00 | 0.00 | 63 | 1015.8 |
| 20260503041030 | 45 | 0 | 1.0 | 5.0 | 0.00 | 0.00 | 0.00 | 62 | 1015.7 |
| 20260503040532 | 45 | 236 | 1.0 | 4.0 | 0.00 | 0.00 | 0.00 | 62 | 1015.7 |
| 20260503040046 | 45 | 251 | 1.0 | 4.0 | 0.00 | 0.00 | 0.00 | 63 | 1015.8 |
| 20260503035529 | 45 | 221 | 1.0 | 4.0 | 0.00 | 0.00 | 0.00 | 63 | 1015.8 |
| 20260503035030 | 45 | 222 | 0.0 | 5.0 | 0.00 | 0.00 | 0.00 | 62 | 1015.8 |
| 20260503034546 | 45 | 199 | 0.0 | 5.0 | 0.00 | 0.00 | 0.00 | 62 | 1016.0 |
| 20260503034029 | 45 | 0 | 0.0 | 5.0 | 0.00 | 0.00 | 0.00 | 62 | 1015.9 |
| 20260503033530 | 45 | 217 | 1.0 | 5.0 | 0.00 | 0.00 | 0.00 | 62 | 1015.9 |
| 20260503033052 | 45 | 0 | 1.0 | 5.0 | 0.00 | 0.00 | 0.00 | 62 | 1015.9 |
| 20260503032529 | 45 | 246 | 0.0 | 3.0 | 0.00 | 0.00 | 0.00 | 62 | 1016.0 |
| 20260503032029 | 45 | 215 | 1.0 | 4.0 | 0.00 | 0.00 | 0.00 | 62 | 1016.0 |
| 20260503031545 | 46 | 0 | 0.0 | 4.0 | 0.00 | 0.00 | 0.00 | 61 | 1016.0 |
| 20260503031032 | 46 | 216 | 1.0 | 4.0 | 0.00 | 0.00 | 0.00 | 61 | 1016.1 |
| 20260503030529 | 46 | 0 | 0.0 | 4.0 | 0.00 | 0.00 | 0.00 | 60 | 1016.1 |
| 20260503030045 | 46 | 183 | 1.0 | 4.0 | 0.00 | 0.00 | 0.00 | 60 | 1016.0 |
| 20260503025530 | 46 | 183 | 0.0 | 4.0 | 0.00 | 0.00 | 0.00 | 60 | 1016.1 |
| 20260503025031 | 46 | 229 | 1.0 | 4.0 | 0.00 | 0.00 | 0.00 | 60 | 1016.1 |
| 20260503024549 | 47 | 238 | 0.0 | 4.0 | 0.00 | 0.00 | 0.00 | 60 | 1016.1 |